�������l�o���
Date,Time,MP-1(��Sv/h),MP-2(��Sv/h),MP-3(��Sv/h),MP-4(��Sv/h),MP-5(��Sv/h),MP-6(��Sv/h),MP-7(��Sv/h),MP-8(��Sv/h),����,����(m/s),���J
2021/08/07,00:00,0.622,0.934,0.589,1.125,0.813,0.373,0.643,0.599,��쐼,4.4,��
2021/08/07,00:10,0.623,0.934,0.591,1.125,0.812,0.372,0.645,0.597,��쐼,3.8,��
2021/08/07,00:20,0.622,0.934,0.591,1.125,0.814,0.373,0.643,0.600,��쐼,3.4,��
2021/08/07,00:30,0.624,0.933,0.591,1.125,0.814,0.373,0.643,0.599,��쐼,2.6,��
2021/08/07,00:40,0.622,0.934,0.590,1.124,0.812,0.373,0.644,0.599,��쐼,2.2,��
2021/08/07,00:50,0.623,0.936,0.592,1.125,0.813,0.373,0.645,0.599,��쐼,1.7,��
2021/08/07,01:00,0.623,0.936,0.590,1.126,0.812,0.372,0.643,0.598,��쐼,1.2,��
2021/08/07,01:10,0.626,0.935,0.593,1.127,0.813,0.372,0.643,0.599,��,1.2,��
2021/08/07,01:20,0.626,0.934,0.592,1.124,0.814,0.371,0.643,0.600,��,0.9,��
2021/08/07,01:30,0.624,0.935,0.590,1.124,0.813,0.373,0.644,0.600,��쐼,0.8,��
2021/08/07,01:40,0.623,0.935,0.589,1.125,0.813,0.372,0.644,0.598,�쐼,0.9,��
2021/08/07,01:50,0.624,0.935,0.591,1.124,0.813,0.371,0.645,0.601,-,CALM,��
2021/08/07,02:00,0.623,0.936,0.590,1.125,0.813,0.372,0.645,0.599,�k�k��,0.8,��
2021/08/07,02:10,0.623,0.934,0.590,1.126,0.814,0.371,0.645,0.599,-,CALM,��
2021/08/07,02:20,0.624,0.935,0.591,1.125,0.814,0.371,0.643,0.598,�k��,0.6,��
2021/08/07,02:30,0.624,0.937,0.590,1.125,0.813,0.374,0.643,0.599,���k��,0.6,��
2021/08/07,02:40,0.624,0.933,0.591,1.123,0.813,0.372,0.642,0.601,-,CALM,��
2021/08/07,02:50,0.623,0.935,0.590,1.126,0.814,0.373,0.643,0.600,�k��,0.8,��
2021/08/07,03:00,0.624,0.934,0.589,1.127,0.813,0.371,0.643,0.601,�k��,0.6,��
2021/08/07,03:10,0.624,0.934,0.590,1.126,0.814,0.372,0.644,0.599,�k��,0.6,��
2021/08/07,03:20,0.623,0.936,0.589,1.126,0.815,0.370,0.644,0.600,�k�k��,0.6,��
2021/08/07,03:30,0.623,0.935,0.590,1.127,0.813,0.372,0.642,0.599,�k��,0.6,��
2021/08/07,03:40,0.625,0.936,0.591,1.126,0.810,0.372,0.643,0.599,���k��,0.6,��
2021/08/07,03:50,0.624,0.936,0.591,1.124,0.811,0.373,0.644,0.599,�k��,0.6,��
2021/08/07,04:00,0.622,0.935,0.590,1.128,0.811,0.371,0.645,0.599,�k��,0.6,��
2021/08/07,04:10,0.623,0.935,0.591,1.125,0.813,0.373,0.644,0.600,���쓌,0.9,��
2021/08/07,04:20,0.623,0.933,0.591,1.124,0.812,0.372,0.643,0.599,���쓌,0.8,��
2021/08/07,04:30,0.622,0.935,0.590,1.126,0.813,0.371,0.643,0.598,��,0.6,��
2021/08/07,04:40,0.624,0.935,0.590,1.127,0.813,0.371,0.643,0.600,���k��,0.9,��
2021/08/07,04:50,0.623,0.934,0.590,1.124,0.813,0.370,0.642,0.600,�k��,0.6,��
2021/08/07,05:00,0.622,0.934,0.590,1.127,0.814,0.372,0.644,0.600,-,CALM,��
2021/08/07,05:10,0.621,0.936,0.591,1.126,0.813,0.372,0.643,0.600,�k��,0.9,��
2021/08/07,05:20,0.622,0.935,0.589,1.125,0.814,0.372,0.643,0.600,�k�k��,0.6,��
2021/08/07,05:30,0.622,0.935,0.592,1.126,0.813,0.373,0.644,0.600,-,CALM,��
2021/08/07,05:40,0.623,0.934,0.591,1.125,0.812,0.370,0.643,0.600,-,CALM,�L
2021/08/07,05:50,0.622,0.936,0.591,1.128,0.812,0.372,0.644,0.599,�쓌,1.1,�L
2021/08/07,06:00,0.623,0.935,0.590,1.124,0.812,0.373,0.644,0.599,��쓌,0.8,��
2021/08/07,06:10,0.624,0.935,0.589,1.124,0.812,0.370,0.644,0.600,-,CALM,�L
2021/08/07,06:20,0.621,0.936,0.591,1.125,0.811,0.371,0.645,0.600,-,CALM,�L
2021/08/07,06:30,0.624,0.934,0.591,1.125,0.812,0.372,0.644,0.599,���k��,0.9,�L
2021/08/07,06:40,0.623,0.934,0.588,1.125,0.812,0.372,0.644,0.599,��,1.1,�L
2021/08/07,06:50,0.622,0.938,0.591,1.126,0.809,0.373,0.644,0.601,��,1.7,�L
2021/08/07,07:00,0.623,0.937,0.592,1.129,0.811,0.372,0.643,0.600,���쐼,0.9,�L
2021/08/07,07:10,0.623,0.938,0.591,1.125,0.809,0.371,0.642,0.599,�쓌,0.6,�L
2021/08/07,07:20,0.624,0.939,0.590,1.126,0.812,0.370,0.643,0.600,-,CALM,�L
2021/08/07,07:30,0.622,0.937,0.589,1.127,0.812,0.370,0.643,0.600,�k�k��,1.7,�L
2021/08/07,07:40,0.623,0.938,0.591,1.127,0.811,0.372,0.642,0.600,�k�k��,1.7,�L
2021/08/07,07:50,0.621,0.935,0.591,1.125,0.812,0.371,0.643,0.600,�k��,0.9,�L
2021/08/07,08:00,0.624,0.936,0.590,1.126,0.810,0.372,0.645,0.600,��,0.8,�L
2021/08/07,08:10,0.623,0.937,0.589,1.125,0.809,0.373,0.642,0.600,��,0.6,�L
2021/08/07,08:20,0.624,0.936,0.591,1.124,0.811,0.371,0.644,0.601,-,CALM,��
2021/08/07,08:30,0.625,0.936,0.590,1.127,0.810,0.372,0.643,0.600,���쐼,0.6,��
2021/08/07,08:40,0.625,0.935,0.590,1.127,0.809,0.370,0.644,0.601,��쐼,0.9,��
2021/08/07,08:50,0.622,0.938,0.590,1.127,0.812,0.371,0.643,0.602,�쓌,0.9,��
2021/08/07,09:00,0.625,0.935,0.592,1.126,0.813,0.372,0.645,0.600,��,1.5,�L
2021/08/07,09:10,0.623,0.938,0.589,1.126,0.812,0.371,0.643,0.599,���쓌,0.8,��
2021/08/07,09:20,0.624,0.935,0.589,1.127,0.809,0.371,0.644,0.600,��,1.4,��
2021/08/07,09:30,0.623,0.935,0.590,1.126,0.808,0.370,0.645,0.598,��,3.0,��
2021/08/07,09:40,0.623,0.933,0.590,1.126,0.811,0.370,0.641,0.597,���쓌,2.3,�L
2021/08/07,09:50,0.623,0.935,0.588,1.125,0.810,0.369,0.643,0.597,�쓌,2.9,��
2021/08/07,10:00,0.625,0.935,0.590,1.124,0.810,0.371,0.642,0.595,��쓌,3.8,�L
2021/08/07,10:10,0.624,0.931,0.587,1.123,0.808,0.370,0.641,0.597,��,4.1,��
2021/08/07,10:20,0.624,0.932,0.587,1.124,0.809,0.370,0.642,0.596,��,3.5,��
2021/08/07,10:30,0.624,0.932,0.588,1.124,0.806,0.370,0.642,0.597,��,2.3,��
2021/08/07,10:40,0.625,0.934,0.587,1.122,0.810,0.371,0.641,0.596,�쓌,2.6,��
2021/08/07,10:50,0.623,0.934,0.589,1.126,0.808,0.371,0.643,0.597,��쓌,2.6,��
2021/08/07,11:00,0.626,0.934,0.588,1.126,0.808,0.371,0.642,0.597,��쓌,3.0,��
2021/08/07,11:10,0.623,0.933,0.587,1.124,0.810,0.370,0.644,0.597,��쓌,3.5,��
2021/08/07,11:20,0.623,0.931,0.588,1.123,0.811,0.371,0.643,0.597,��쓌,3.9,��
2021/08/07,11:30,0.625,0.934,0.591,1.123,0.812,0.372,0.642,0.598,�쓌,3.3,��
2021/08/07,11:40,0.624,0.935,0.590,1.122,0.813,0.371,0.644,0.599,��쓌,2.9,��
2021/08/07,11:50,0.623,0.934,0.590,1.123,0.812,0.371,0.646,0.598,��쓌,3.0,��
2021/08/07,12:00,0.625,0.934,0.590,1.123,0.813,0.372,0.644,0.597,�쓌,2.9,��
2021/08/07,12:10,0.624,0.933,0.592,1.124,0.812,0.371,0.643,0.598,�쓌,3.5,��
2021/08/07,12:20,0.625,0.933,0.590,1.124,0.810,0.372,0.644,0.599,��쓌,3.1,��
2021/08/07,12:30,0.625,0.937,0.592,1.123,0.812,0.370,0.644,0.598,��쓌,2.6,��
2021/08/07,12:40,0.624,0.937,0.591,1.122,0.812,0.372,0.644,0.599,�쓌,3.4,��
2021/08/07,12:50,0.625,0.936,0.590,1.126,0.813,0.371,0.644,0.600,�쓌,3.9,��
2021/08/07,13:00,0.626,0.937,0.591,1.125,0.814,0.372,0.645,0.600,�쓌,3.8,��
2021/08/07,13:10,0.626,0.936,0.592,1.124,0.814,0.371,0.644,0.598,�쓌,3.6,��
2021/08/07,13:20,0.624,0.937,0.592,1.126,0.816,0.372,0.643,0.600,�쓌,2.6,��
2021/08/07,13:30,0.625,0.936,0.589,1.124,0.815,0.371,0.645,0.599,��쓌,3.7,��
2021/08/07,13:40,0.625,0.935,0.590,1.123,0.815,0.371,0.645,0.600,�쓌,4.0,��
2021/08/07,13:50,0.625,0.935,0.592,1.126,0.816,0.372,0.643,0.599,�쓌,3.9,��
2021/08/07,14:00,0.627,0.937,0.590,1.127,0.814,0.372,0.645,0.597,��쓌,5.3,��
2021/08/07,14:10,0.627,0.935,0.593,1.127,0.817,0.373,0.645,0.599,��쓌,6.4,��
2021/08/07,14:20,0.626,0.936,0.591,1.128,0.815,0.372,0.647,0.601,��쓌,7.2,��
2021/08/07,14:30,0.626,0.937,0.590,1.128,0.815,0.374,0.646,0.601,��쓌,6.1,��
2021/08/07,14:40,0.627,0.937,0.591,1.127,0.817,0.372,0.647,0.600,��쓌,5.0,��
2021/08/07,14:50,0.627,0.938,0.593,1.126,0.815,0.373,0.648,0.600,��쓌,5.5,��
2021/08/07,15:00,0.627,0.936,0.593,1.126,0.816,0.373,0.647,0.601,��쓌,5.3,��
2021/08/07,15:10,0.627,0.937,0.594,1.127,0.814,0.373,0.647,0.599,��쓌,5.4,��
2021/08/07,15:20,0.628,0.939,0.593,1.126,0.817,0.375,0.646,0.600,��쓌,4.4,��
2021/08/07,15:30,0.628,0.937,0.593,1.125,0.815,0.373,0.648,0.601,��쓌,4.1,��
2021/08/07,15:40,0.627,0.939,0.594,1.127,0.815,0.372,0.648,0.599,��쓌,4.9,��
2021/08/07,15:50,0.627,0.938,0.594,1.129,0.814,0.374,0.647,0.601,��쓌,5.1,��
2021/08/07,16:00,0.626,0.937,0.594,1.130,0.816,0.373,0.648,0.600,��쓌,5.0,��
2021/08/07,16:10,0.627,0.939,0.594,1.129,0.814,0.372,0.645,0.601,��,5.9,��
2021/08/07,16:20,0.627,0.939,0.593,1.129,0.814,0.372,0.645,0.601,��쓌,5.0,��
2021/08/07,16:30,0.628,0.940,0.593,1.129,0.814,0.372,0.646,0.602,��쓌,5.9,��
2021/08/07,16:40,0.627,0.939,0.592,1.129,0.815,0.374,0.646,0.599,��,5.7,��
2021/08/07,16:50,0.629,0.939,0.592,1.128,0.818,0.373,0.645,0.600,��쓌,6.2,��
2021/08/07,17:00,0.627,0.936,0.592,1.132,0.816,0.373,0.645,0.598,��,6.0,�L
2021/08/07,17:10,0.628,0.939,0.591,1.131,0.818,0.372,0.644,0.599,��,5.4,��
2021/08/07,17:20,0.626,0.938,0.593,1.131,0.817,0.372,0.646,0.600,��쓌,5.2,��
2021/08/07,17:30,0.627,0.936,0.594,1.131,0.816,0.373,0.646,0.599,��쓌,5.0,��
2021/08/07,17:40,0.626,0.938,0.591,1.131,0.815,0.372,0.644,0.599,��쓌,6.6,��
2021/08/07,17:50,0.624,0.939,0.592,1.129,0.817,0.372,0.645,0.600,��,6.0,��
2021/08/07,18:00,0.626,0.937,0.591,1.131,0.816,0.371,0.645,0.600,��,4.7,��
2021/08/07,18:10,0.624,0.936,0.591,1.128,0.816,0.372,0.647,0.600,��,3.5,��
2021/08/07,18:20,0.626,0.936,0.593,1.130,0.815,0.372,0.645,0.601,��,3.6,��
2021/08/07,18:30,0.625,0.939,0.591,1.130,0.816,0.372,0.644,0.599,��쓌,5.3,��
2021/08/07,18:40,0.626,0.936,0.591,1.129,0.818,0.371,0.643,0.600,��쓌,5.4,��
2021/08/07,18:50,0.626,0.937,0.591,1.128,0.817,0.371,0.644,0.600,��쓌,4.9,�L
2021/08/07,19:00,0.625,0.934,0.590,1.130,0.818,0.370,0.644,0.598,��쓌,3.6,�L
2021/08/07,19:10,0.626,0.935,0.590,1.128,0.817,0.370,0.643,0.600,��쓌,3.2,�L
2021/08/07,19:20,0.627,0.937,0.593,1.131,0.815,0.372,0.645,0.597,��쓌,3.6,��
2021/08/07,19:30,0.626,0.937,0.593,1.128,0.817,0.371,0.643,0.598,��,2.6,��
2021/08/07,19:40,0.624,0.937,0.590,1.130,0.818,0.372,0.645,0.598,��쓌,3.0,��
2021/08/07,19:50,0.625,0.940,0.592,1.128,0.818,0.371,0.644,0.598,��쓌,3.1,��
2021/08/07,20:00,0.624,0.935,0.593,1.130,0.817,0.371,0.643,0.599,��쓌,2.2,��
2021/08/07,20:10,0.624,0.937,0.592,1.131,0.817,0.373,0.643,0.599,��쐼,1.7,��
2021/08/07,20:20,0.627,0.938,0.592,1.129,0.818,0.372,0.643,0.599,��쓌,1.2,��
2021/08/07,20:30,0.625,0.939,0.591,1.128,0.815,0.374,0.643,0.601,��쓌,1.2,�L
2021/08/07,20:40,0.626,0.937,0.593,1.131,0.816,0.371,0.643,0.599,��쓌,1.7,�L
2021/08/07,20:50,0.626,0.937,0.592,1.129,0.814,0.371,0.642,0.598,�쓌,1.7,�L
2021/08/07,21:00,0.623,0.934,0.591,1.127,0.814,0.372,0.643,0.597,�쓌,1.7,�L
2021/08/07,21:10,0.624,0.932,0.592,1.129,0.812,0.371,0.641,0.596,��쓌,1.7,��
2021/08/07,21:20,0.622,0.933,0.591,1.129,0.809,0.369,0.642,0.598,���쓌,1.7,��
2021/08/07,21:30,0.622,0.935,0.591,1.129,0.811,0.371,0.642,0.596,���쓌,2.0,�L
2021/08/07,21:40,0.623,0.931,0.590,1.130,0.811,0.369,0.642,0.598,��쓌,1.7,�L
2021/08/07,21:50,0.622,0.932,0.590,1.129,0.811,0.370,0.642,0.598,��,1.5,�L
2021/08/07,22:00,0.621,0.933,0.590,1.128,0.811,0.371,0.642,0.599,��쓌,1.2,�L
2021/08/07,22:10,0.621,0.933,0.591,1.128,0.810,0.370,0.643,0.597,�쓌,1.4,��
2021/08/07,22:20,0.621,0.932,0.590,1.129,0.808,0.370,0.641,0.597,��쓌,1.4,�L
2021/08/07,22:30,0.621,0.933,0.590,1.128,0.810,0.369,0.642,0.595,��쓌,2.2,�L
2021/08/07,22:40,0.620,0.932,0.590,1.128,0.808,0.369,0.641,0.596,��쓌,2.8,�L
2021/08/07,22:50,0.619,0.929,0.588,1.128,0.806,0.369,0.641,0.596,��,2.8,�L
2021/08/07,23:00,0.619,0.931,0.590,1.126,0.806,0.369,0.642,0.596,��쐼,2.6,�L
2021/08/07,23:10,0.619,0.929,0.588,1.126,0.802,0.369,0.642,0.597,��,2.9,��
2021/08/07,23:20,0.618,0.931,0.589,1.126,0.804,0.368,0.639,0.596,��,2.8,��
2021/08/07,23:30,0.617,0.930,0.590,1.126,0.805,0.368,0.642,0.596,��쐼,1.9,��
2021/08/07,23:40,0.618,0.928,0.588,1.126,0.804,0.369,0.642,0.596,��쐼,2.3,��
2021/08/07,23:50,0.619,0.930,0.589,1.126,0.804,0.370,0.640,0.596,��쐼,2.5,��
